Flag for Canada Weather past 2 weeks in Surrey, British Columbia, Canada

Now
53 °F

Cool.


Feels Like: 51 °F
Forecast: 47 / 56 °F
Wind: 7 mph from West

Location: P. Meadows Coastal Station

Current Time: Apr 28, 2015 at 1:32:55 PM

Latest Report: Apr 28, 2015 at 1:00 PM


Visibility: N/A

Pressure: 30.11 "Hg

Humidity: 74%

Dew point: 45 °F

Location of SurreyLocation

Historic Weather in Surrey — Graph

°F

Surrey temperature yesterday

Maximum temperature yesterday: 65 °F (at 6:00 PM)
Minimum temperature yesterday: 46 °F (at 6:00 AM)
Average temperature yesterday: 54 °F

Past Weeks' High & Low Weather Summary

 TemperatureHumidityPressure
High72 °F (Apr 20, 4:00 PM)100% (Apr 14, 5:00 AM)30.54 "Hg (Apr 14, 5:00 AM)
Low36 °F (Apr 26, 6:00 AM)34% (Apr 22, 2:00 PM)29.72 "Hg (Apr 24, 5:00 AM)
Average50 °F76%30.10 "Hg
* Reported Apr 13 12:00 Noon — Apr 28 12:00 Noon, Surrey, Weather by CustomWeather, © 2015

Note: Actual official high and low records may vary slightly from our data, if they occured in-between our weather recording intervals... More about our weather records

Advertising

Surrey weather history for previous 24 hours

 ConditionsComfort  
Time TempWeatherWind HumidityBarometerVisibility
12:00 PM
Tue, Apr 28
55 °FCool.3 mph65%30.09 "HgN/A
11:00 AM54 °FCool.7 mph71%30.07 "HgN/A
10:00 AM56 °FCool.2 mph91%30.02 "HgN/A
9:00 AM54 °FCool.1 mph92%30.01 "HgN/A
8:00 AM53 °FCool.1 mph87%29.99 "HgN/A
7:00 AM53 °FCool.No wind94%29.97 "HgN/A
6:00 AM51 °FCool.2 mph95%29.95 "HgN/A
5:00 AM52 °FCool.2 mph92%29.94 "HgN/A
4:00 AM50 °FCool.1 mph93%29.93 "HgN/A
3:00 AM49 °FCool.2 mph95%29.89 "HgN/A
2:00 AM50 °FCool.No wind94%29.88 "HgN/A
1:00 AM52 °FCool.1 mph92%29.88 "HgN/A
12:00 AM52 °FCool.No wind89%29.89 "HgN/A
11:00 PM
Mon, Apr 27
53 °FCool.2 mph88%29.91 "HgN/A
10:00 PM57 °FCool.1 mph82%29.92 "HgN/A
9:00 PM61 °FCool.5 mph70%29.94 "HgN/A
8:00 PM62 °FMild.9 mph68%29.96 "HgN/A
7:00 PM64 °FMild.9 mph65%30.00 "HgN/A
6:00 PM65 °FMild.10 mph63%30.04 "HgN/A
5:00 PM64 °FMild.10 mph66%30.07 "HgN/A
4:00 PM63 °FMild.8 mph69%30.11 "HgN/A
3:00 PM61 °FCool.12 mph75%30.16 "HgN/A
2:00 PM60 °FCool.9 mph83%30.21 "HgN/A
1:00 PM56 °FCool.7 mph91%30.23 "HgN/A
Weather by CustomWeather, © 2015

See weather overviewHow to use our weather pages